Date String (YYYY-MM-DD hh:mm:ss) UTC,Instrument flags,Ambient pressure (hPa),Sample flow (lpm),Bypass flow (lpm),Sample temperature (°C),Ambient temperature (°C),ASC tube jacket temperature (°C),LED temperature (°C),Box temperature (°C),Sample RH (%),Span deviation,Mass concentration (μg/m³),Mass concentration (μg/m³),Mass concentration (μg/m³)
DateTimeUTC,F1_M11,P_M11,Q1_M11,Q2_M11,T1_M11,T2_M11,T3_M11,T4_M11,T5_M11,U1_M11,ZSPAN_M11,X0_M11,X2_M11,X1_M11
2022-11-03 12:00:00,,0818.4,5.00,0.00,26.6,25.0,00.0,35.4,28.5,09.6,0000.0,0011.35,0003.69,0002.62
2022-11-03 12:01:00,,0818.5,5.00,0.00,26.6,25.1,00.0,35.4,28.5,09.6,0000.0,0011.05,0003.68,0002.63
2022-11-03 12:02:00,,0818.6,5.00,0.00,26.6,25.0,00.0,35.4,28.5,09.6,0000.0,0010.93,0003.71,0002.66
2022-11-03 12:03:00,,0818.7,4.99,0.00,26.6,25.1,00.0,35.4,28.5,09.6,0000.0,0010.94,0003.79,0002.67
2022-11-03 12:04:00,,0818.7,5.00,0.00,26.6,25.1,00.0,35.4,28.5,09.6,0000.0,0010.48,0003.80,0002.68
2022-11-03 12:05:00,,0818.8,5.01,0.00,26.6,25.0,00.0,35.4,28.5,09.6,0000.0,0010.04,0003.77,0002.70
2022-11-03 12:06:00,,0818.8,4.99,0.00,26.6,25.0,00.0,35.4,28.5,09.7,0000.0,0010.32,0003.80,0002.72
2022-11-03 12:07:00,,0818.9,4.99,0.00,26.6,25.0,00.0,35.4,28.5,09.8,0000.0,0010.31,0003.75,0002.71
2022-11-03 12:08:00,,0818.9,5.00,0.00,26.6,25.0,00.0,35.4,28.5,09.9,0000.0,0010.35,0003.77,0002.71
2022-11-03 12:09:00,,0818.9,5.01,0.00,26.6,25.0,00.0,35.4,28.5,10.0,0000.0,0010.18,0003.82,0002.71
2022-11-03 12:10:00,,0819.0,5.01,0.00,26.6,25.0,00.0,35.4,28.5,10.1,0000.0,0009.86,0003.90,0002.72
2022-11-03 12:11:00,,0819.0,5.00,0.00,26.6,25.0,00.0,35.4,28.5,10.3,0000.0,0009.61,0003.93,0002.71
2022-11-03 12:12:00,,0819.0,5.00,0.00,26.6,25.0,00.0,35.4,28.5,10.4,0000.0,0011.44,0003.93,0002.69
2022-11-03 12:13:00,,0819.0,5.00,0.00,26.6,24.9,00.0,35.4,28.5,10.5,0000.0,0012.77,0003.93,0002.68
2022-11-03 12:14:00,,0818.9,5.00,0.00,26.6,24.9,00.0,35.4,28.4,10.6,0000.0,0012.74,0003.91,0002.65
2022-11-03 12:15:00,,0819.0,5.00,0.00,26.6,24.8,00.0,35.4,28.4,11.1,0000.0,0014.28,0003.96,0002.62
2022-11-03 12:16:00,,0818.9,5.00,0.00,26.5,24.8,00.0,35.4,28.4,11.3,0000.0,0015.08,0004.02,0002.58
2022-11-03 12:17:00,,0819.0,5.01,0.00,26.5,24.7,00.0,35.4,28.3,11.6,0000.0,0016.64,0004.07,0002.54
2022-11-03 12:18:00,,0818.9,5.01,0.00,26.5,24.7,00.0,35.4,28.3,11.6,0000.0,0017.16,0004.17,0002.51
2022-11-03 12:19:00,,0818.9,4.99,0.00,26.5,24.6,00.0,35.3,28.3,11.7,0000.0,0018.19,0004.19,0002.47
2022-11-03 12:20:00,,0818.9,5.00,0.00,26.4,24.6,00.0,35.3,28.3,11.8,0000.0,0019.70,0004.24,0002.44
2022-11-03 12:21:00,,0818.9,5.00,0.00,26.4,24.6,00.0,35.3,28.3,11.8,0000.0,0020.91,0004.28,0002.40
2022-11-03 12:22:00,,0818.8,4.99,0.00,26.4,24.5,00.0,35.3,28.2,11.8,0000.0,0022.61,0004.29,0002.37
2022-11-03 12:23:00,,0818.8,5.00,0.00,26.4,24.5,00.0,35.3,28.2,11.8,0000.0,0023.34,0004.37,0002.35
2022-11-03 12:24:00,,0818.7,5.01,0.00,26.4,24.5,00.0,35.2,28.2,11.9,0000.0,0023.75,0004.38,0002.32
2022-11-03 12:25:00,,0818.7,5.00,0.00,26.3,24.6,00.0,35.2,28.2,11.9,0000.0,0024.07,0004.37,0002.30
2022-11-03 12:26:00,,0818.7,4.99,0.00,26.3,24.6,00.0,35.2,28.2,11.9,0000.0,0023.55,0004.43,0002.29
2022-11-03 12:27:00,,0818.8,4.99,0.00,26.3,24.6,00.0,35.2,28.2,11.9,0000.0,0023.14,0004.43,0002.26
2022-11-03 12:28:00,,0818.8,5.01,0.00,26.3,24.6,00.0,35.2,28.2,12.0,0000.0,0022.65,0004.44,0002.25
2022-11-03 12:29:00,,0818.8,5.01,0.00,26.3,24.6,00.0,35.2,28.2,12.1,0000.0,0023.40,0004.48,0002.23
2022-11-03 12:30:00,,0818.9,5.00,0.00,26.3,24.6,00.0,35.2,28.2,12.1,0000.0,0024.30,0004.55,0002.22
2022-11-03 12:31:00,,0818.9,4.99,0.00,26.3,24.6,00.0,35.1,28.2,12.1,0000.0,0024.64,0004.57,0002.19
2022-11-03 12:32:00,,0819.0,5.00,0.00,26.3,24.6,00.0,35.1,28.2,12.2,0000.0,0023.82,0004.55,0002.17
2022-11-03 12:33:00,,0819.0,5.00,0.00,26.3,24.6,00.0,35.1,28.2,12.3,0000.0,0022.57,0004.64,0002.16
2022-11-03 12:34:00,,0819.0,5.01,0.00,26.3,24.6,00.0,35.1,28.2,12.4,0000.0,0020.21,0004.60,0002.15
2022-11-03 12:35:00,,0819.0,5.01,0.00,26.3,24.6,00.0,35.1,28.2,12.4,0000.0,0020.00,0004.63,0002.14
2022-11-03 12:36:00,,0819.0,4.99,0.00,26.3,24.6,00.0,35.1,28.2,12.5,0000.0,0022.30,0004.74,0002.12
2022-11-03 12:37:00,,0819.0,5.00,0.00,26.3,24.6,00.0,35.1,28.2,12.5,0000.0,0023.14,0004.76,0002.09
2022-11-03 12:38:00,,0819.0,5.00,0.00,26.3,24.6,00.0,35.1,28.2,12.6,0000.0,0023.46,0004.77,0002.09
2022-11-03 12:39:00,,0819.0,5.00,0.00,26.3,24.6,00.0,35.1,28.2,12.6,0000.0,0023.97,0004.79,0002.08
2022-11-03 12:40:00,,0819.0,5.01,0.00,26.3,24.6,00.0,35.1,28.1,12.6,0000.0,0024.95,0004.80,0002.08
2022-11-03 12:41:00,,0819.0,5.01,0.00,26.3,24.6,00.0,35.1,28.1,12.6,0000.0,0024.58,0004.76,0002.09
2022-11-03 12:42:00,,0819.0,4.98,0.00,26.2,24.5,00.0,35.1,28.1,12.7,0000.0,0023.19,0004.78,0002.12
2022-11-03 12:43:00,,0819.0,5.02,0.00,26.2,24.5,00.0,35.1,28.1,12.7,0000.0,0024.13,0004.82,0002.12
2022-11-03 12:44:00,,0819.0,5.01,0.00,26.2,24.5,00.0,35.0,28.1,12.7,0000.0,0024.93,0004.83,0002.13
2022-11-03 12:45:00,,0819.1,4.99,0.00,26.2,24.5,00.0,35.0,28.1,12.7,0000.0,0026.55,0004.90,0002.12
2022-11-03 12:46:00,,0819.1,5.00,0.00,26.2,24.5,00.0,35.0,28.1,12.8,0000.0,0028.50,0004.96,0002.12
2022-11-03 12:47:00,,0819.1,5.01,0.00,26.2,24.5,00.0,35.0,28.1,12.8,0000.0,0027.72,0004.93,0002.13
2022-11-03 12:48:00,,0819.1,5.00,0.00,26.2,24.5,00.0,35.0,28.1,12.9,0000.0,0027.67,0004.88,0002.14
2022-11-03 12:49:00,,0819.1,4.98,0.00,26.2,24.5,00.0,35.0,28.1,12.9,0000.0,0027.94,0004.92,0002.14
2022-11-03 12:50:00,,0819.2,5.01,0.00,26.2,24.5,00.0,35.0,28.1,12.9,0000.0,0028.18,0004.93,0002.15
2022-11-03 12:51:00,,0819.3,5.00,0.00,26.2,24.6,00.0,35.0,28.1,12.9,0000.0,0027.06,0004.95,0002.16
2022-11-03 12:52:00,,0819.3,5.00,0.00,26.2,24.5,00.0,35.0,28.1,12.9,0000.0,0027.02,0004.97,0002.15
2022-11-03 12:53:00,,0819.3,5.00,0.00,26.2,24.5,00.0,35.0,28.1,12.9,0000.0,0026.88,0004.90,0002.14
2022-11-03 12:54:00,,0819.4,5.01,0.00,26.2,24.5,00.0,35.0,28.1,12.9,0000.0,0027.42,0004.86,0002.14
2022-11-03 12:55:00,,0819.4,5.00,0.00,26.2,24.5,00.0,35.0,28.1,12.9,0000.0,0028.49,0004.88,0002.14
2022-11-03 12:56:00,,0819.5,5.00,0.00,26.2,24.5,00.0,35.0,28.0,13.0,0000.0,0026.95,0004.76,0002.16
2022-11-03 12:57:00,,0819.5,5.00,0.00,26.2,24.5,00.0,35.0,28.0,13.0,0000.0,0026.13,0004.66,0002.16
2022-11-03 12:58:00,,0819.5,5.00,0.00,26.2,24.5,00.0,35.0,28.0,13.0,0000.0,0024.95,0004.64,0002.14
2022-11-03 12:59:00,,0819.4,5.00,0.00,26.2,24.5,00.0,34.9,28.0,13.0,0000.0,0023.67,0004.59,0002.12
